This is the latest recevied weather packets stored in our database for station/object IU1OLT-5. If no packets are shown the sender has not sent any weather packets the latest 10 day(s).
| Time | Temp. | Humidity | Pressure | Rain* | Wind** | Luminosity | Snow |
|---|---|---|---|---|---|---|---|
| 1777716687 | 18.33° C | 39% | 1025.4 hPa | 0 mm | - | 712 W/m² | - |
| 1777715787 | 18.33° C | 39% | 1025.6 hPa | 0 mm | - | 702 W/m² | - |
| 1777714886 | 18.33° C | 40% | 1025.6 hPa | 0 mm | - | 672 W/m² | - |
| 1777713986 | 18.33° C | 40% | 1025.8 hPa | 0 mm | - | 662 W/m² | - |
| 1777713086 | 18.33° C | 42% | 1025.9 hPa | 0 mm | - | 652 W/m² | - |
| 1777712186 | 18.33° C | 47% | 1026 hPa | 0 mm | - | 608 W/m² | - |
| 1777711285 | 17.78° C | 49% | 1025.5 hPa | 0 mm | - | 585 W/m² | - |
| 1777710385 | 17.78° C | 53% | 1025.9 hPa | 0 mm | - | 555 W/m² | - |
| 1777709485 | 18.33° C | 50% | 1025.8 hPa | 0 mm | - | 491 W/m² | - |
| 1777708585 | 18.89° C | 46% | 1025.9 hPa | 0 mm | - | 459 W/m² | - |
| 1777707685 | 17.78° C | 45% | 1025.8 hPa | 0 mm | - | 429 W/m² | - |
| 1777706785 | 17.78° C | 48% | 1025.9 hPa | 0 mm | - | 377 W/m² | - |
| 1777705885 | 16.67° C | 50% | 1025.7 hPa | 0 mm | - | 353 W/m² | - |
| 1777704985 | 16.11° C | 54% | 1026.1 hPa | 0 mm | - | 308 W/m² | - |
| 1777704084 | 15.56° C | 52% | 1026.1 hPa | 0 mm | - | 266 W/m² | - |
| 1777703184 | 14.44° C | 56% | 1026.1 hPa | 0 mm | - | 225 W/m² | - |
| 1777702284 | 13.89° C | 51% | 1026 hPa | 0 mm | - | 184 W/m² | - |
| 1777701384 | 13.89° C | 48% | 1026 hPa | 0 mm | - | 145 W/m² | - |
| 1777700484 | 13.89° C | 49% | 1026.1 hPa | 0 mm | - | 110 W/m² | - |
| 1777699584 | 13.33° C | 49% | 1026 hPa | 0 mm | - | 81 W/m² | - |
| 1777698684 | 12.78° C | 52% | 1025.8 hPa | 0 mm | - | 55 W/m² | - |
| 1777697783 | 12.22° C | 51% | 1025.6 hPa | 0 mm | - | 35 W/m² | - |
| 1777696883 | 11.67° C | 53% | 1025.8 hPa | 0 mm | - | 20 W/m² | - |
| 1777695983 | 11.11° C | 55% | 1025.9 hPa | 0 mm | - | 8 W/m² | - |
| 1777695082 | 11.67° C | 52% | 1025.9 hPa | 0 mm | - | 2 W/m² | - |
* Rain latest hour (hover to see other rain measurements)
** Current wind speed in m/s (hover to see current wind gust speed)